Weather History for Bennington, VT

Change the Weather History Date:

Sunday, July 28, 2013

  Actual Average Record
Temperature  
Mean Temperature 69 °F 68 °F  
Max Temperature 75 °F 79 °F 84 °F (2010)
Min Temperature 63 °F 57 °F 42 °F (2001)
Degree Days  
Heating Degree Days 0 1  
Month to date heating degree days 9 28  
Since 1 June heating degree days 109 125  
Since 1 July heating degree days 9 28  
Cooling Degree Days 4 4  
Month to date cooling degree days 246 111  
Year to date cooling degree days 376 183  
Since 1 June cooling degree days 344 169  
Growing Degree Days 19 (Base 50)    
Moisture  
Dew Point 64 °F    
Average Humidity 79    
Maximum Humidity 93    
Minimum Humidity 64    
Precipitation  
Precipitation 0.30 in 0.14 in 1.51 in (2014)
Month to date precipitation 5.60 3.92  
Year to date precipitation 27.36 23.12  
Sea Level Pressure  
Sea Level Pressure 29.97 in    
Wind  
Wind Speed 3 mph (SE)    
Max Wind Speed 13 mph    
Max Gust Speed 23 mph    
Visibility 8 miles    
Events Rain    
T = Trace of Precipitation, MM = Missing Value Source: NWS Daily Summary

Daily Weather History Graph

Daily Weather History Graph

Search for Another Location

Airport:

Trip Planner

Search our weather history database for the weather conditions in past years. The results will help you decide how hot, cold, wet, or windy it might be!

Date:

Astronomy

Jul. 28, 2013 Rise Set
Actual Time 5:40 AM EDT 8:18 PM EDT
Civil Twilight 5:07 AM EDT 8:50 PM EDT
Nautical Twilight 4:26 AM EDT 9:31 PM EDT
Astronomical Twilight 3:40 AM EDT 10:17 PM EDT
Moon 11:26 PM EDT (7/28) 12:31 PM EDT (7/28)
Length of Visible Light 15h 42m
Length of Day
14h 37m
Waning Gibbous, 61% of the Moon is Illuminated
Jul 28
Waning Gibbous
Jul 29
Last Quarter
Aug 6
New
Aug 14
First Quarter
Aug 20
Full

Hourly Weather History & Observations

Time (EDT) Temp. Dew Point Humidity Pressure Visibility Wind Dir Wind Speed Gust Speed Precip Events Conditions
12:54 AM 63.0 °F 60.1 °F 90% 29.98 in 10.0 mi Calm Calm - N/A   Clear
1:54 AM 64.9 °F 60.1 °F 84% 29.97 in 10.0 mi Variable 4.6 mph - N/A   Clear
2:54 AM 66.9 °F 60.1 °F 79% 29.96 in 10.0 mi East 6.9 mph - N/A   Clear
3:54 AM 66.0 °F 57.9 °F 75% 29.96 in 10.0 mi Variable 3.5 mph - N/A   Partly Cloudy
4:54 AM 66.0 °F 57.9 °F 75% 29.96 in 10.0 mi Variable 3.5 mph - N/A   Overcast
5:54 AM 64.0 °F 57.9 °F 80% 29.96 in 10.0 mi NW 3.5 mph - N/A   Mostly Cloudy
6:54 AM 64.9 °F 59.0 °F 81% 29.97 in 10.0 mi Calm Calm - N/A   Partly Cloudy
7:54 AM 66.0 °F 60.1 °F 81% 29.99 in 10.0 mi ESE 3.5 mph - 0.00 in Rain Light Rain
8:54 AM 66.0 °F 62.1 °F 87% 30.00 in 9.0 mi WNW 3.5 mph - 0.01 in Rain Light Rain
9:54 AM 69.1 °F 62.1 °F 78% 29.99 in 10.0 mi South 6.9 mph - 0.00 in Rain Light Rain
10:54 AM 69.1 °F 62.1 °F 78% 29.97 in 9.0 mi SSW 3.5 mph - 0.01 in Rain Light Rain
11:54 AM 73.0 °F 64.0 °F 73% 29.95 in 10.0 mi Calm Calm - 0.00 in   Mostly Cloudy
12:54 PM 75.0 °F 63.0 °F 66% 29.96 in 10.0 mi South 6.9 mph - N/A   Overcast
1:54 PM 73.0 °F 64.0 °F 73% 29.98 in 6.0 mi Calm Calm - 0.01 in Rain Light Rain
2:54 PM 71.1 °F 66.0 °F 84% 29.96 in 9.0 mi NW 4.6 mph - 0.02 in Rain Light Rain
3:54 PM 70.0 °F 66.9 °F 90% 29.95 in 6.0 mi NNE 3.5 mph - 0.05 in Rain Light Rain
4:05 PM 69.8 °F 66.2 °F 88% 29.96 in 10.0 mi Calm Calm - 0.00 in   Overcast
4:54 PM 72.0 °F 68.0 °F 87% 29.94 in 10.0 mi Calm Calm - 0.00 in   Mostly Cloudy
5:54 PM 72.0 °F 68.0 °F 87% 29.94 in 9.0 mi Calm Calm - N/A   Overcast
6:54 PM 72.0 °F 66.9 °F 84% 29.96 in 2.0 mi SSE 3.5 mph - 0.03 in Rain Heavy Rain
7:04 PM 71.6 °F 66.2 °F 83% 29.97 in 1.0 mi SE 11.5 mph 16.1 mph 0.14 in Rain Heavy Rain
7:15 PM 71.6 °F 66.2 °F 83% 29.97 in 4.0 mi Variable 5.8 mph 16.1 mph 0.17 in Rain Light Rain
7:54 PM 70.0 °F 68.0 °F 93% 29.96 in 3.0 mi Calm Calm - 0.17 in   Overcast
8:54 PM 70.0 °F 66.9 °F 90% 29.96 in 8.0 mi NE 3.5 mph - N/A   Overcast
9:54 PM 69.1 °F 66.9 °F 93% 29.98 in 4.0 mi Calm Calm - 0.00 in   Overcast
10:54 PM 68.0 °F 66.0 °F 93% 29.97 in 5.0 mi Calm Calm - N/A   Mostly Cloudy
11:54 PM 68.0 °F 64.9 °F 90% 29.98 in 9.0 mi Calm Calm - N/A   Overcast